Skip Page Navigation
NASA JPL Caltech
NASA Logo - Jet Propulsion Laboratory + View the NASA Portal
+ Center for Near-Earth Object Studies
JPL Home Earth Solar System Stars & Galaxies Technology
JPL Solar System Dynamics
BODIES ORBITS EPHEMERIDES TOOLS PHYSICAL DATA DISCOVERY FAQ SITE MAP
JPL Small-Body Database Browser
Search: [ help ]  
332275 (2006 SZ181)
Classification: Outer Main-belt Asteroid          SPK-ID: 2332275
Ephemeris | Orbit Diagram | Orbital Elements | Mission Design | Physical Parameters | Discovery Circumstances | Close-Approach Data ]

[ show orbit diagram ]
Orbital Elements at Epoch 2459000.5 (2020-May-31.0) TDB
Reference: JPL 13 (heliocentric ecliptic J2000)
 Element Value Uncertainty (1-sigma)   Units 
e .2061999583762802 7.3088e-08  
a 3.952108825940128 8.9073e-08 au
q 3.137184150532744 2.834e-07 au
i 10.38301699839095 5.4355e-06 deg
node 136.3492208173871 4.7955e-05 deg
peri 221.5856755199482 5.0637e-05 deg
M 279.4903142041098 2.2847e-05 deg
tp 2459642.281804713932
(2022-Mar-03.78180471)
0.00019965 TDB
period 2869.734832685303
7.86
9.7018e-05
2.656e-07
d
yr
n .1254471304803923 4.241e-09 deg/d
Q 4.767033501347512 1.0744e-07 au
  Orbit Determination Parameters
   # obs. used (total)      199  
   data-arc span      5094 days (13.95 yr)  
   first obs. used      2005-06-13  
   last obs. used      2019-05-25  
   planetary ephem.      DE431  
   SB-pert. ephem.      SB431-N16  
   condition code      0  
   norm. resid. RMS      .54812  
   source      ORB  
   producer      Otto Matic  
   solution date      2020-Feb-25 21:06:42  

Additional Information
 Earth MOID = 2.14266 au 
 Jupiter MOID = .75694 au 
 T_jup = 2.994 
[ show covariance matrix ]

Ephemeris | Orbit Diagram | Orbital Elements | Mission Design | Physical Parameters | Discovery Circumstances | Close-Approach Data ]

Physical Parameter Table
Parameter Symbol Value Units Sigma Reference Notes
absolute magnitude H 14.7   n/a MPO476522  

332275 (2006 SZ181)          Discovered 2006-Sep-25 by LONEOS at Anderson Mesa
Reference: 20120703/Numbers.arcLast Updated: 2012-07-09

[ show close-approach data ]
Ephemeris | Orbit Diagram | Orbital Elements | Mission Design | Physical Parameters | Discovery Circumstances | Close-Approach Data ]
ABOUT SSD CREDITS/AWARDS PRIVACY/COPYRIGHT GLOSSARY LINKS
FirstGov 2020-Nov-01 03:00 UT
(server date/time)  
NASA Home Page
Site Manager:   Ryan S. Park
Webmaster  Alan B. Chamberlin